1532055600.4,46297,16.94,73946.5,6.51,5.85,5.85,0,*71
1532055601.65,46298,16.94,73946.8,6.51,5.85,5.85,0,*7E
1532055602.88,46299,16.94,73942.8,6.49,5.85,5.81,0,*72
1532055604.11,46300,16.94,73946.3,6.49,5.81,5.81,0,*77
1532055605.36,46301,16.94,73944.0,6.51,5.85,5.85,0,*7F
1532055606.61,46302,16.94,73946.5,6.53,5.85,5.85,0,*7E
1532055607.84,46303,16.94,73944.3,6.49,5.81,5.81,0,*74
1532055609.07,46304,16.94,73946.8,6.49,5.81,5.81,0,*73
1532055610.3,46305,16.94,73950.3,6.49,5.85,5.81,0,*76
1532055611.53,46306,16.94,73944.3,6.51,5.89,5.95,0,*75
1532055612.74,46307,16.94,73944.8,6.51,5.99,5.99,0,*79
1532055613.95,46308,16.94,73946.8,6.53,5.95,5.95,0,*74
1532055615.18,46309,16.94,73946.5,6.51,5.93,5.95,0,*71
1532055616.36,46310,16.94,73940.8,6.49,5.95,5.95,0,*76
1532055617.57,46311,16.94,73940.3,6.53,5.95,5.95,0,*7C
1532055618.8,46312,16.94,73942.8,6.51,5.89,5.95,0,*70
1532055620.03,46313,17.0,73946.3,6.53,5.89,5.95,0,*73
1532055621.24,46314,16.94,73940.0,6.51,5.95,5.95,0,*7B
1532055622.45,46315,16.94,73940.5,6.49,5.95,5.93,0,*75
1532055623.67,46316,16.94,73938.5,6.49,5.81,5.81,0,*70
1532055624.9,46317,16.94,73940.0,6.49,5.85,5.81,0,*75
1532055626.16,46318,16.94,73938.3,6.51,5.89,5.89,0,*77
1532055627.36,46319,16.94,73938.5,6.53,5.95,5.95,0,*74
1532055628.62,46320,16.94,73938.0,6.51,5.89,5.89,0,*7C
1532055629.88,46321,16.94,73934.0,6.51,5.89,5.89,0,*7D
1532055631.09,46322,16.94,73932.8,6.51,5.95,5.95,0,*7E
1532055632.3,46323,16.94,73936.8,6.51,5.99,5.99,0,*7F
1532055633.51,46324,16.94,73936.8,6.53,5.95,5.99,0,*76
1532055634.71,46325,16.94,73936.8,6.53,5.95,5.99,0,*77
1532055635.93,46326,16.94,73936.8,6.51,5.95,5.99,0,*76
1532055637.13,46327,16.94,73940.8,6.51,5.95,5.95,0,*7B
1532055638.36,46328,16.94,73946.3,6.51,5.85,5.95,0,*75
1532055639.57,46329,16.94,73944.3,6.49,5.95,5.93,0,*7A
1532055640.8,46330,16.94,73942.5,6.53,5.89,5.95,0,*72
1532055642.06,46331,16.94,73940.5,6.51,5.89,5.89,0,*7C
1532055643.31,46332,16.94,73940.5,6.51,5.85,5.85,0,*7F
1532055644.56,46333,16.94,73942.3,6.51,5.85,5.85,0,*7E
1532055645.82,46334,16.94,73940.0,6.51,5.89,5.85,0,*75
1532055647.08,46335,16.94,73938.8,6.51,5.85,5.89,0,*74
1532055648.33,46336,16.94,73938.0,6.51,5.89,5.85,0,*77
1532055649.59,46337,16.94,73942.5,6.51,5.89,5.89,0,*7A
1532055650.84,46338,16.94,73936.5,6.51,5.85,5.85,0,*75
1532055652.07,46339,16.94,73938.8,6.49,5.85,5.85,0,*7D
1532055653.3,46340,16.94,73940.5,6.49,5.85,5.93,0,*74
1532055654.53,46341,16.94,73940.3,6.49,5.93,5.85,0,*75
1532055655.79,46342,16.94,73940.5,6.51,5.89,5.89,0,*78
1532055657.01,46343,16.94,73940.3,6.49,5.85,5.85,0,*70
1532055658.24,46344,16.94,73940.5,6.51,5.95,5.89,0,*73
1532055659.47,46345,16.94,73940.3,6.51,5.85,5.95,0,*7E
1532055660.73,46346,16.94,73946.0,6.51,5.89,5.85,0,*70
1532055661.97,46347,16.94,73942.5,6.51,5.89,5.95,0,*70
1532055663.19,46348,16.94,73944.3,6.49,5.85,5.93,0,*7C
1532055664.42,46349,17.0,73944.3,6.49,5.85,5.85,0,*7A
1532055665.68,46350,16.94,73940.3,6.51,5.89,5.89,0,*7B
1532055666.91,46351,16.94,73936.8,6.51,5.99,5.89,0,*7B
1532055668.13,46352,16.94,73940.3,6.49,5.85,5.85,0,*70
1532055669.37,46353,16.94,73940.8,6.53,5.89,5.95,0,*77
1532055670.62,46354,16.94,73942.3,6.53,5.85,5.89,0,*71
1532055671.85,46355,16.94,73946.0,6.53,5.89,5.95,0,*71
1532055673.1,46356,16.94,73946.0,6.53,5.89,5.85,0,*73
1532055674.36,46357,16.94,73944.5,6.51,5.85,5.85,0,*7C
1532055675.61,46358,16.94,73942.8,6.51,5.81,5.81,0,*73
1532055676.83,46359,16.94,73946.0,6.49,5.77,5.77,0,*7B
1532055678.08,46360,16.94,73942.0,6.51,5.85,5.85,0,*78
1532055679.31,46361,16.94,73942.0,6.49,5.81,5.81,0,*70
1532055680.56,46362,16.94,73942.3,6.51,5.81,5.85,0,*7E
1532055681.78,46363,16.94,73942.5,6.49,5.77,5.81,0,*7B
1532055683.01,46364,16.94,73944.3,6.49,5.77,5.81,0,*7C
1532055684.23,46365,16.94,73942.5,6.49,5.77,5.81,0,*7D
1532055685.48,46366,16.94,73940.5,6.53,5.73,5.81,0,*71
1532055686.67,46367,16.94,73942.8,6.49,5.71,5.73,0,*74
1532055687.88,46368,16.94,73944.5,6.49,5.55,5.59,0,*75
1532055689.06,46369,16.94,73944.8,6.49,5.59,5.67,0,*75
1532055690.3,46370,16.94,73940.8,6.47,5.55,5.51,0,*7A
1532055691.48,46371,16.94,73944.8,6.49,5.49,5.59,0,*70
1532055692.7,46372,16.94,73942.8,6.49,5.55,5.55,0,*72
1532055693.9,46373,16.94,73944.0,6.47,5.45,5.45,0,*7D
1532055695.09,46374,16.94,73942.8,6.47,5.45,5.45,0,*7A
1532055696.34,46375,16.94,73944.0,6.47,5.51,5.55,0,*7F
1532055697.51,46376,16.94,73942.3,6.45,5.67,5.63,0,*7E
1532055698.71,46377,16.94,73942.0,6.45,5.55,5.63,0,*7E
1532055699.93,46378,16.94,73942.0,6.47,5.63,5.73,0,*77
1532055701.14,46379,16.94,73940.5,6.45,5.73,5.67,0,*70
1532055702.33,46380,16.94,73946.8,6.45,5.67,5.73,0,*76
1532055703.56,46381,16.94,73946.0,6.47,5.67,5.55,0,*71
1532055704.77,46382,16.94,73944.8,6.47,5.63,5.63,0,*73
1532055705.94,46383,16.94,73942.8,6.45,5.63,5.63,0,*70
1532055707.14,46384,16.94,73940.0,6.45,5.63,5.55,0,*72
1532055708.34,46385,16.94,73940.0,6.45,5.55,5.63,0,*73
1532055709.51,46386,16.94,73940.3,6.45,5.63,5.63,0,*75
1532055710.71,46387,16.94,73946.5,6.45,5.55,5.63,0,*71
1532055711.93,46388,16.94,73944.8,6.45,5.55,5.51,0,*7F
1532055713.11,46389,16.94,73940.5,6.45,5.63,5.63,0,*7A
1532055714.29,46390,16.94,73942.5,6.45,5.67,5.67,0,*72
1532055715.51,46391,16.94,73946.8,6.45,5.73,5.73,0,*73
1532055716.73,46392,16.94,73946.8,6.45,5.73,5.77,0,*74
1532055717.95,46393,16.94,73944.3,6.45,5.77,5.81,0,*78
1532055719.16,46394,16.94,73946.3,6.45,5.77,5.81,0,*7F
1532055720.38,46395,16.94,73944.5,6.45,5.77,5.81,0,*7E
1532055721.6,46396,16.94,73946.5,6.45,5.81,5.77,0,*7D
1532055722.85,46397,16.94,73946.0,6.47,5.81,5.81,0,*77
1532055724.1,46398,16.94,73942.8,6.47,5.81,5.89,0,*70
1532055725.33,46399,16.94,73946.3,6.45,5.89,5.89,0,*7B
1532055726.58,46400,16.94,73944.5,6.47,5.89,5.89,0,*7E
1532055727.84,46401,16.94,73946.0,6.47,5.89,5.89,0,*7F
1532055729.09,46402,16.94,73944.0,6.47,5.89,5.93,0,*77
1532055730.35,46403,16.94,73942.3,6.47,5.89,5.93,0,*76
1532055731.57,46404,16.94,73944.3,6.45,5.89,5.89,0,*78
1532055732.8,46405,16.94,73946.8,6.45,5.89,5.81,0,*71
1532055734.05,46406,16.94,73940.3,6.47,5.81,5.77,0,*71
1532055735.28,46407,16.94,73942.8,6.45,5.89,5.89,0,*7B
1532055736.53,46408,16.94,73944.3,6.47,5.93,5.89,0,*7D
1532055737.78,46409,16.94,73944.5,6.47,5.89,5.89,0,*77
1532055739.03,46410,16.94,73946.0,6.47,5.81,5.77,0,*76
1532055740.28,46411,16.94,73942.0,6.47,5.77,5.81,0,*77
1532055741.49,46412,16.94,73946.5,6.45,5.77,5.81,0,*76
1532055742.73,46413,16.94,73942.8,6.47,5.77,5.77,0,*7C
1532055743.98,46414,16.94,73940.3,6.47,5.77,5.81,0,*72
1532055745.22,46415,16.94,73942.3,6.47,5.77,5.81,0,*73
1532055746.46,46416,16.94,73940.3,6.47,5.77,5.77,0,*79
1532055747.69,46417,16.94,73946.3,6.45,5.89,5.77,0,*7B
1532055748.93,46418,16.94,73940.0,6.47,5.77,5.81,0,*7E
1532055750.17,46419,16.94,73942.8,6.47,5.77,5.77,0,*76
1532055751.42,46420,16.94,73942.0,6.47,5.73,5.77,0,*78
1532055752.64,46421,16.94,73938.3,6.45,5.73,5.77,0,*7B
1532055753.86,46422,16.94,73942.0,6.45,5.73,5.77,0,*78
1532055755.1,46423,16.94,73940.0,6.47,5.77,5.77,0,*7F
1532055756.35,46424,16.94,73936.5,6.47,5.81,5.81,0,*78
1532055757.58,46425,16.94,73942.5,6.49,5.85,5.85,0,*77
1532055758.83,46426,16.94,73940.3,6.47,5.89,5.89,0,*7A
1532055760.09,46427,16.94,73940.0,6.47,5.89,5.81,0,*73
1532055761.31,46428,16.94,73940.5,6.49,5.81,5.81,0,*7A
1532055762.57,46429,16.94,73940.0,6.47,5.81,5.81,0,*75
1532055763.81,46430,16.94,73940.0,6.47,5.81,5.89,0,*75
1532055765.07,46431,16.94,73940.8,6.47,5.89,5.89,0,*7C
1532055766.32,46432,16.94,73942.5,6.47,5.93,5.93,0,*7F
1532055767.55,46433,16.94,73938.3,6.49,5.85,5.93,0,*77
1532055768.78,46434,16.94,73938.8,6.49,5.93,5.93,0,*77
1532055770.01,46435,16.94,73936.8,6.49,5.93,5.85,0,*71
1532055771.22,46436,16.94,73940.0,6.51,5.99,5.95,0,*70
1532055772.43,46437,16.94,73938.5,6.49,5.93,5.95,0,*72
1532055773.68,46438,16.94,73936.5,6.47,5.93,5.93,0,*75
1532055774.87,46439,16.94,73936.5,6.49,5.95,6.03,0,*76
1532055776.06,46440,16.94,73938.5,6.49,6.03,6.03,0,*74
1532055777.24,46441,16.94,73936.3,6.49,6.07,6.03,0,*71
1532055778.42,46442,16.94,73936.0,6.49,6.03,6.07,0,*72
1532055779.61,46443,16.94,73940.5,6.49,5.95,6.03,0,*7B
1532055780.81,46444,16.94,73942.3,6.51,6.07,6.07,0,*79
1532055782.01,46445,16.94,73940.8,6.51,6.07,6.07,0,*78
1532055783.21,46446,16.94,73938.0,6.51,5.95,6.07,0,*73
1532055784.4,46447,16.94,73940.0,6.49,5.95,6.03,0,*7F
1532055785.58,46448,16.94,73940.3,6.49,5.95,5.95,0,*7C
1532055786.77,46449,16.94,73942.3,6.49,5.95,6.03,0,*71
1532055787.96,46450,16.94,73942.8,6.49,6.03,6.03,0,*75
1532055789.14,46451,16.94,73942.8,6.49,5.95,6.03,0,*78
1532055790.35,46452,16.94,73942.8,6.51,5.99,6.07,0,*7A
1532055791.55,46453,16.94,73944.5,6.53,5.99,5.99,0,*7D
1532055792.74,46454,16.94,73942.8,6.49,5.95,5.95,0,*71
1532055793.94,46455,16.94,73942.8,6.53,5.99,5.99,0,*7B
1532055795.15,46456,16.94,73946.5,6.53,5.99,5.95,0,*74
1532055796.33,46457,16.94,73940.8,6.49,5.95,5.95,0,*72
1532055797.54,46458,16.94,73944.0,6.51,5.99,5.95,0,*78
1532055798.75,46459,16.94,73946.0,6.51,5.99,5.99,0,*75
1532055799.96,46460,16.94,73944.0,6.51,5.99,5.99,0,*7F
1532055801.17,46461,17.0,73948.0,6.51,5.95,5.95,0,*7E
1532055802.38,46462,16.94,73940.0,6.51,5.95,5.99,0,*71
1532055803.59,46463,16.94,73946.5,6.51,5.99,5.95,0,*70
1532055804.8,46464,16.94,73944.0,6.51,5.95,5.95,0,*7B
1532055806.03,46465,16.94,73946.3,6.49,5.85,5.93,0,*74
1532055807.25,46466,16.94,73942.5,6.49,5.85,5.85,0,*70
1532055808.48,46467,16.94,73942.8,6.49,5.81,5.85,0,*75
1532055809.73,46468,16.94,73936.8,6.51,5.85,5.85,0,*77
1532055810.99,46469,16.94,73938.8,6.51,5.85,5.85,0,*76
1532055812.21,46470,16.94,73940.8,6.49,5.81,5.81,0,*77
1532055813.47,46471,16.94,73942.0,6.51,5.85,5.85,0,*7F
1532055814.69,46472,16.94,73942.0,6.49,5.81,5.81,0,*75
1532055815.95,46473,16.94,73942.3,6.51,5.85,5.81,0,*79
1532055817.17,46474,16.94,73944.8,6.49,5.77,5.77,0,*73
1532055818.35,46475,16.94,73940.3,6.49,5.71,5.67,0,*75
1532055819.58,46476,16.94,73942.0,6.51,5.73,5.71,0,*7A
1532055820.78,46477,16.94,73940.5,6.49,5.71,5.81,0,*7F
1532055821.99,46478,16.94,73938.5,6.49,5.77,5.77,0,*7F
1532055823.25,46479,16.94,73936.5,6.51,5.81,5.81,0,*77
1532055824.5,46480,16.94,73942.5,6.53,5.81,5.81,0,*73
1532055825.76,46481,16.94,73940.8,6.51,5.81,5.81,0,*70
1532055826.97,46482,16.94,73940.0,6.49,5.77,5.77,0,*7A
1532055828.15,46483,16.94,73942.3,6.49,5.67,5.71,0,*7C
1532055829.4,46484,17.0,73946.3,6.47,5.55,5.55,0,*72
1532055830.58,46485,16.94,73942.0,6.49,5.71,5.67,0,*7A
1532055831.78,46486,16.94,73942.0,6.49,5.71,5.77,0,*78
1532055833.0,46487,16.94,73936.5,6.49,5.77,5.77,0,*7F
1532055834.24,46488,16.94,73940.8,6.47,5.73,5.73,0,*7E
1532055835.49,46489,16.94,73938.3,6.47,5.73,5.77,0,*7B
1532055836.73,46490,16.94,73940.3,6.47,5.73,5.77,0,*73
1532055837.96,46491,16.94,73942.0,6.49,5.77,5.81,0,*71
1532055839.18,46492,16.94,73936.0,6.49,5.77,5.81,0,*72
1532055840.43,46493,16.94,73940.0,6.51,5.81,5.85,0,*77
1532055841.65,46494,16.94,73942.3,6.49,5.77,5.81,0,*74
1532055842.88,46495,16.94,73940.5,6.49,5.85,5.81,0,*78
1532055844.1,46496,16.94,73942.5,6.49,5.77,5.81,0,*76
1532055845.35,46497,16.94,73942.5,6.47,5.73,5.73,0,*70
1532055846.56,46498,16.94,73940.5,6.49,5.77,5.77,0,*71
1532055847.81,46499,16.94,73938.5,6.47,5.73,5.73,0,*7E
1532055849.06,46500,16.94,73940.0,6.47,5.73,5.73,0,*7F
1532055850.3,46501,16.94,73936.3,6.47,5.73,5.73,0,*7E
1532055851.55,46502,16.94,73936.8,6.47,5.73,5.73,0,*7D
1532055852.8,46503,17.0,73942.5,6.47,5.73,5.73,0,*7C
1532055854.05,46504,16.94,73942.8,6.47,5.81,5.77,0,*72
1532055855.29,46505,16.94,73936.5,6.47,5.81,5.77,0,*73
1532055856.52,46506,16.94,73942.8,6.49,5.81,5.81,0,*77
1532055857.75,46507,16.94,73940.5,6.49,5.81,5.81,0,*76
1532055858.97,46508,16.94,73942.0,6.49,5.81,5.81,0,*79
1532055860.19,46509,16.94,73942.3,6.49,5.77,5.77,0,*78
1532055861.44,46510,16.94,73940.3,6.47,5.73,5.73,0,*7E
1532055862.69,46511,16.94,73942.8,6.47,5.73,5.77,0,*7B
1532055863.93,46512,16.94,73940.3,6.47,5.73,5.77,0,*78
1532055865.18,46513,16.94,73942.5,6.47,5.73,5.77,0,*79
1532055866.39,46514,16.94,73944.8,6.45,5.77,5.77,0,*78
1532055867.63,46515,16.94,73942.3,6.47,5.77,5.77,0,*7B
1532055868.87,46516,16.94,73938.5,6.47,5.77,5.77,0,*78
1532055870.11,46517,16.94,73942.3,6.47,5.77,5.77,0,*79
1532055871.35,46518,16.94,73940.3,6.47,5.77,5.77,0,*76
1532055872.59,46519,16.94,73938.8,6.47,5.77,5.77,0,*77
1532055873.82,46520,16.94,73942.3,6.49,5.81,5.85,0,*77
1532055875.06,46521,16.94,73940.5,6.47,5.77,5.77,0,*7C
1532055876.3,46522,16.94,73936.3,6.47,5.77,5.77,0,*7F
1532055877.54,46523,16.94,73938.3,6.47,5.77,5.77,0,*7E
1532055878.76,46524,16.94,73936.3,6.45,5.81,5.77,0,*72
1532055880.0,46525,16.94,73942.0,6.47,5.77,5.77,0,*78
1532055881.24,46526,16.94,73942.0,6.47,5.77,5.77,0,*7B
1532055882.48,46527,16.94,73942.3,6.47,5.77,5.77,0,*7A
1532055883.73,46528,16.94,73936.5,6.47,5.77,5.81,0,*7C
1532055884.97,46529,16.94,73938.5,6.47,5.77,5.81,0,*7D
1532055886.21,46530,16.94,73938.0,6.47,5.77,5.77,0,*7C
1532055887.46,46531,16.94,73940.0,6.47,5.81,5.81,0,*7D
1532055888.7,46532,16.94,73940.8,6.47,5.77,5.77,0,*7E
1532055889.95,46533,16.94,73942.3,6.47,5.77,5.77,0,*7F
1532055891.19,46534,16.94,73942.8,6.47,5.77,5.77,0,*78
1532055892.43,46535,16.94,73940.8,6.47,5.77,5.77,0,*79
1532055893.65,46536,16.94,73936.8,6.49,5.81,5.85,0,*70
1532055894.88,46537,16.94,73940.5,6.49,5.85,5.81,0,*71
1532055896.09,46538,16.94,73944.3,6.45,5.77,5.77,0,*76
1532055897.33,46539,16.94,73940.8,6.47,5.77,5.77,0,*75
1532055898.56,46540,16.94,73940.8,6.47,5.77,5.67,0,*7A
1532055899.77,46541,16.94,73942.5,6.47,5.67,5.67,0,*7A
1532055900.97,46542,16.94,73942.5,6.47,5.67,5.67,0,*79
1532055902.18,46543,16.94,73942.8,6.47,5.67,5.67,0,*78
1532055903.39,46544,16.94,73940.3,6.47,5.67,5.67,0,*7F
1532055904.64,46545,16.94,73944.3,6.47,5.55,5.55,0,*7E
1532055905.88,46546,16.94,73942.5,6.47,5.55,5.51,0,*79
1532055907.09,46547,16.94,73942.5,6.47,5.63,5.67,0,*78
1532055908.29,46548,16.94,73942.3,6.47,5.63,5.63,0,*73
1532055909.47,46549,16.94,73940.8,6.45,5.67,5.63,0,*74
1532055910.7,46550,16.94,73942.5,6.47,5.73,5.67,0,*7F
1532055911.9,46551,16.94,73942.5,6.45,5.67,5.73,0,*7C
1532055913.1,46552,16.94,73946.0,6.45,5.73,5.67,0,*7F
1532055914.31,46553,16.94,73940.0,6.47,5.67,5.63,0,*7D
1532055915.55,46554,16.94,73942.8,6.47,5.51,5.55,0,*7A
1532055916.8,46555,16.94,73942.0,6.47,5.51,5.55,0,*7B
1532055918.01,46556,16.94,73946.3,6.43,5.59,5.59,0,*78
1532055919.21,46557,16.94,73944.3,6.47,5.63,5.63,0,*7D
1532055920.44,46558,16.94,73946.0,6.47,5.63,5.55,0,*77
1532055921.66,46559,16.94,73944.5,6.47,5.51,5.45,0,*76
1532055922.88,46560,16.94,73946.0,6.45,5.51,5.51,0,*7B
1532055924.07,46561,16.94,73946.3,6.47,5.45,5.45,0,*78
1532055925.25,46562,16.94,73950.0,6.45,5.63,5.63,0,*79
1532055926.47,46563,16.94,73948.0,6.45,5.55,5.55,0,*78
1532055927.64,46564,16.94,73950.0,6.45,5.63,5.63,0,*7F
1532055928.82,46565,16.94,73946.8,6.45,5.63,5.63,0,*7E
1532055930.0,46566,16.94,73950.5,6.45,5.67,5.67,0,*7D
1532055931.18,46567,16.94,73950.3,6.45,5.67,5.63,0,*78
1532055932.4,46568,16.94,73948.0,6.45,5.73,5.73,0,*73
1532055933.62,46569,16.94,73948.0,6.45,5.73,5.73,0,*72
1532055934.87,46570,16.94,73946.0,6.43,5.73,5.73,0,*7C
1532055936.08,46571,16.94,73946.5,6.45,5.77,5.77,0,*7B
1532055937.29,46572,16.94,73946.3,6.45,5.77,5.77,0,*78
1532055938.51,46573,16.94,73946.8,6.45,5.81,5.77,0,*70
1532055939.74,46574,16.94,73944.5,6.49,5.85,5.85,0,*72
1532055940.97,46575,16.94,73946.8,6.45,5.89,5.89,0,*7F
1532055942.22,46576,16.94,73944.5,6.47,5.89,5.81,0,*76
1532055943.45,46577,16.94,73944.0,6.45,5.89,5.81,0,*75
1532055944.68,46578,16.94,73946.0,6.45,5.93,5.89,0,*79
1532055945.92,46579,16.94,73940.0,6.43,5.77,5.77,0,*75
1532055947.17,46580,16.94,73942.8,6.47,5.81,5.81,0,*77
1532055948.4,46581,16.94,73942.8,6.45,5.89,5.81,0,*7C
1532055949.63,46582,16.94,73942.0,6.45,5.89,5.93,0,*7C
1532055950.88,46583,16.94,73940.5,6.47,5.89,5.89,0,*74
1532055952.11,46584,16.94,73944.3,6.45,5.81,5.81,0,*71
1532055953.34,46585,16.94,73940.8,6.45,5.89,5.81,0,*78
1532055954.57,46586,16.94,73946.0,6.47,5.77,5.77,0,*71
1532055955.83,46587,16.94,73944.0,6.47,5.81,5.81,0,*70
1532055957.08,46588,16.94,73940.0,6.47,5.81,5.89,0,*77
1532055958.3,46589,16.94,73936.0,6.45,5.89,5.89,0,*7C
1532055959.56,46590,16.94,73944.8,6.47,5.81,5.81,0,*76
1532055960.8,46591,16.94,73948.5,6.47,5.81,5.89,0,*7F
1532055962.02,46592,16.94,73950.3,6.45,5.77,5.77,0,*76
1532055963.23,46593,16.94,73948.0,6.45,5.77,5.77,0,*77
1532055964.48,46594,16.94,73948.0,6.47,5.77,5.81,0,*7B
1532055965.69,46595,16.94,73950.3,6.45,5.77,5.81,0,*78
1532055966.93,46596,16.94,73946.3,6.47,5.77,5.77,0,*70
1532055968.15,46597,16.94,73948.8,6.45,5.77,5.81,0,*7A
1532055969.36,46598,16.94,73950.5,6.47,5.67,5.67,0,*7E
1532055970.56,46599,16.94,73950.0,6.45,5.67,5.73,0,*78
1532055971.74,46600,16.94,73950.0,6.45,5.63,5.67,0,*7A
1532055972.96,46601,16.94,73950.0,6.45,5.73,5.73,0,*7F
1532055974.18,46602,16.94,73948.5,6.45,5.73,5.73,0,*7C
1532055975.39,46603,16.94,73948.5,6.45,5.77,5.77,0,*7D
1532055976.61,46604,16.94,73944.0,6.45,5.81,5.77,0,*73
1532055977.86,46605,16.94,73946.8,6.47,5.81,5.77,0,*70
1532055979.11,46606,16.94,73946.8,6.47,5.89,5.89,0,*7A
1532055980.33,46607,16.94,73944.5,6.45,5.81,5.77,0,*70
1532055981.58,46608,16.94,73946.0,6.47,5.81,5.77,0,*7D
1532055982.81,46609,16.94,73944.8,6.49,5.81,5.81,0,*7B
1532055984.02,46610,16.94,73946.3,6.45,5.77,5.73,0,*7B
1532055985.26,46611,16.94,73948.5,6.47,5.77,5.73,0,*78
1532055986.51,46612,16.94,73946.3,6.47,5.73,5.73,0,*7F
1532055987.73,46613,16.94,73946.3,6.45,5.73,5.73,0,*7C
1532055988.95,46614,16.94,73944.8,6.45,5.73,5.73,0,*7B
1532055990.2,46615,16.94,73944.8,6.47,5.73,5.73,0,*78
1532055991.42,46616,16.94,73946.8,6.45,5.73,5.73,0,*79
1532055992.64,46617,16.94,73946.3,6.45,5.73,5.73,0,*78
1532055993.84,46618,16.94,73946.5,6.45,5.55,5.67,0,*76
1532055995.06,46619,16.94,73942.5,6.45,5.51,5.51,0,*76
1532055996.3,46620,16.94,73940.3,6.47,5.51,5.51,0,*7E
1532055997.5,46621,16.94,73944.5,6.45,5.55,5.63,0,*78
1532055998.7,46622,16.94,73944.0,6.45,5.73,5.63,0,*7F
1532055999.9,46623,16.94,73942.8,6.45,5.73,5.67,0,*7A
1532056001.08,46624,17.0,73946.8,6.45,5.63,5.67,0,*7C
1532056002.3,46625,16.94,73942.5,6.45,5.73,5.73,0,*79
1532056003.49,46626,16.94,73944.3,6.45,5.67,5.67,0,*7A
1532056004.67,46627,16.94,73944.5,6.45,5.67,5.67,0,*7B
1532056005.87,46628,16.94,73946.5,6.43,5.71,5.63,0,*71
1532056007.07,46629,16.94,73940.8,6.43,5.71,5.63,0,*70
1532056008.28,46630,16.94,73938.5,6.43,5.63,5.71,0,*78
1532056009.47,46631,16.94,73942.3,6.45,5.67,5.73,0,*79
1532056010.68,46632,16.94,73942.5,6.45,5.73,5.67,0,*7A
1532056011.9,46633,16.94,73942.3,6.45,5.73,5.73,0,*7E
1532056013.12,46634,16.94,73944.3,6.45,5.73,5.73,0,*79
1532056014.3,46635,16.94,73942.3,6.45,5.67,5.67,0,*78
1532056015.52,46636,16.94,73944.5,6.45,5.73,5.73,0,*7B
1532056016.7,46637,16.94,73948.0,6.41,5.63,5.71,0,*7D
1532056017.88,46638,16.94,73950.5,6.41,5.71,5.71,0,*71
1532056019.08,46639,16.94,73948.3,6.43,5.71,5.63,0,*71
1532056020.28,46640,16.94,73948.8,6.43,5.71,5.71,0,*7C
1532056021.49,46641,16.94,73946.5,6.43,5.71,5.71,0,*7D
1532056022.69,46642,16.94,73946.5,6.43,5.71,5.71,0,*7E
1532056023.94,46643,16.94,73944.0,6.43,5.73,5.73,0,*7F
1532056025.16,46644,16.94,73940.5,6.43,5.71,5.73,0,*7A
1532056026.34,46645,16.94,73946.3,6.41,5.71,5.71,0,*7B
1532056027.58,46646,16.94,73948.8,6.43,5.73,5.73,0,*7A
1532056028.83,46647,16.94,73950.5,6.43,5.77,5.73,0,*7F
1532056030.07,46648,16.94,73946.8,6.43,5.77,5.85,0,*79
1532056031.32,46649,16.94,73948.0,6.43,5.85,5.85,0,*75
1532056032.58,46650,16.94,73950.3,6.43,5.89,5.89,0,*7D
1532056033.83,46651,16.94,73946.5,6.43,5.85,5.89,0,*70
1532056035.08,46652,16.94,73944.0,6.43,5.89,5.85,0,*73
1532056036.33,46653,16.94,73946.3,6.43,5.85,5.85,0,*7E
1532056037.58,46654,16.94,73944.5,6.43,5.77,5.89,0,*78
1532056038.83,46655,16.94,73946.5,6.43,5.73,5.73,0,*78
1532056040.05,46656,16.94,73942.0,6.45,5.81,5.77,0,*74
1532056041.29,46657,16.94,73944.3,6.43,5.77,5.77,0,*7A
1532056042.51,46658,16.94,73946.5,6.45,5.81,5.81,0,*73
1532056043.74,46659,16.94,73946.5,6.45,5.89,5.89,0,*72
1532056044.99,46660,16.94,73944.8,6.43,5.85,5.85,0,*7E
1532056046.24,46661,16.94,73944.0,6.43,5.73,5.77,0,*7B
1532056047.49,46662,16.94,73940.8,6.47,5.81,5.81,0,*78
1532056048.71,46663,16.94,73936.8,6.45,5.81,5.89,0,*73
1532056049.97,46664,16.94,73944.0,6.47,5.93,5.89,0,*75
1532056051.22,46665,16.94,73946.0,6.47,5.93,5.93,0,*7F
1532056052.45,46666,16.94,73946.8,6.45,5.93,5.93,0,*7E
1532056053.7,46667,16.94,73944.8,6.47,5.89,5.89,0,*7D
1532056054.92,46668,17.0,73946.8,6.45,5.77,5.89,0,*71
1532056056.16,46669,16.94,73944.0,6.47,5.77,5.81,0,*7A
1532056057.38,46670,16.94,73942.0,6.45,5.77,5.81,0,*70
1532056058.62,46671,16.94,73942.3,6.47,5.77,5.77,0,*7A
1532056059.84,46672,16.94,73944.0,6.45,5.73,5.73,0,*7B
1532056061.06,46673,16.94,73940.3,6.45,5.73,5.73,0,*7A
1532056062.26,46674,16.94,73942.5,6.45,5.67,5.73,0,*78
1532056063.48,46675,16.94,73940.5,6.45,5.73,5.73,0,*7C
1532056064.73,46676,16.94,73940.5,6.47,5.73,5.73,0,*7D
1532056065.93,46677,16.94,73938.8,6.45,5.73,5.67,0,*7B
1532056067.15,46678,16.94,73940.3,6.45,5.73,5.73,0,*71
1532056068.37,46679,16.94,73940.3,6.45,5.73,5.73,0,*70
1532056069.59,46680,16.94,73942.0,6.45,5.73,5.77,0,*72
1532056070.81,46681,16.94,73938.0,6.45,5.73,5.77,0,*73
1532056072.03,46682,16.94,73936.0,6.45,5.73,5.73,0,*74
1532056073.23,46683,16.94,73940.8,6.45,5.73,5.67,0,*70
1532056074.46,46684,16.94,73938.5,6.45,5.73,5.73,0,*72
1532056075.66,46685,16.94,73936.3,6.45,5.73,5.67,0,*76
1532056076.86,46686,16.94,73936.8,6.45,5.63,5.73,0,*71
1532056078.08,46687,16.94,73938.0,6.45,5.73,5.73,0,*71
1532056079.3,46688,16.94,73938.3,6.45,5.73,5.73,0,*7E
1532056080.52,46689,16.94,73940.0,6.45,5.73,5.77,0,*7B
1532056081.73,46690,16.94,73938.0,6.45,5.77,5.77,0,*77
1532056082.98,46691,16.94,73936.0,6.43,5.73,5.73,0,*70
1532056084.22,46692,16.94,73932.8,6.43,5.73,5.77,0,*77
1532056085.44,46693,16.94,73936.3,6.45,5.77,5.77,0,*74
1532056086.65,46694,16.94,73938.8,6.45,5.77,5.77,0,*73
1532056087.87,46695,16.94,73936.5,6.45,5.77,5.77,0,*72
1532056089.06,46696,16.94,73938.8,6.45,5.67,5.77,0,*70
1532056090.26,46697,16.94,73938.8,6.45,5.67,5.73,0,*75
1532056091.44,46698,16.94,73938.8,6.45,5.67,5.67,0,*7F
1532056092.66,46699,16.94,73936.8,6.45,5.73,5.73,0,*7E
1532056093.84,46700,16.94,73942.8,6.45,5.67,5.67,0,*7F
1532056095.04,46701,16.94,73936.8,6.45,5.67,5.73,0,*7B
1532056096.26,46702,16.94,73942.0,6.45,5.73,5.73,0,*7D
1532056097.46,46703,16.94,73938.5,6.45,5.67,5.73,0,*79
1532056098.64,46704,16.94,73942.3,6.45,5.63,5.67,0,*7F
1532056099.82,46705,16.94,73940.5,6.45,5.67,5.67,0,*7A
1532056101.02,46706,16.94,73940.5,6.43,5.71,5.71,0,*7F
1532056102.23,46707,16.94,73938.3,6.43,5.71,5.71,0,*7E
1532056103.47,46708,16.94,73936.5,6.43,5.77,5.77,0,*71
1532056104.71,46709,16.94,73930.3,6.43,5.77,5.77,0,*70
1532056105.95,46710,16.94,73928.8,6.43,5.77,5.85,0,*75
1532056107.19,46711,16.94,73932.5,6.43,5.77,5.77,0,*79
1532056108.44,46712,16.94,73936.8,6.43,5.77,5.77,0,*7A
1532056109.65,46713,16.94,73936.0,6.45,5.77,5.81,0,*74
1532056110.88,46714,16.94,73936.0,6.45,5.89,5.89,0,*7A
1532056112.13,46715,16.94,73936.5,6.43,5.77,5.85,0,*70
1532056113.38,46716,16.94,73938.5,6.43,5.85,5.85,0,*7E
1532056114.6,46717,16.94,73938.5,6.45,5.89,5.93,0,*72
1532056115.83,46718,16.94,73940.5,6.45,5.81,5.81,0,*76
1532056117.05,46719,16.94,73942.3,6.45,5.81,5.81,0,*77
1532056118.27,46720,16.94,73936.5,6.45,5.77,5.77,0,*7D
1532056119.48,46721,16.94,73936.3,6.45,5.77,5.77,0,*7C
1532056120.73,46722,16.94,73940.5,6.47,5.81,5.81,0,*7D
1532056121.95,46723,16.94,73936.5,6.45,5.81,5.77,0,*77
1532056123.17,46724,16.94,73940.3,6.45,5.81,5.81,0,*79
1532056124.42,46725,16.94,73942.3,6.47,5.77,5.89,0,*7B
1532056125.64,46726,16.94,73940.3,6.45,5.81,5.89,0,*73
1532056126.87,46727,16.94,73942.3,6.45,5.89,5.89,0,*7A
1532056128.12,46728,16.94,73940.3,6.47,5.89,5.89,0,*77
1532056129.37,46729,16.94,73940.8,6.47,5.81,5.77,0,*7F
1532056130.6,46730,16.94,73942.0,6.45,5.93,5.93,0,*7C
1532056131.8,46731,16.94,73936.5,6.49,5.95,5.93,0,*77
1532056133.06,46732,16.94,73936.5,6.47,5.89,5.89,0,*7C
1532056134.27,46733,16.94,73936.3,6.45,5.77,5.81,0,*76